Flag for USA

Past Weather in Metairie, Louisiana, USA — Yesterday and Last 2 Weeks

Now
69 °F

Low clouds.


Feels Like: 69 °F
Forecast: 76 / 75 °F
Wind: 15 mph from East

Location: New Orleans International Airport
Current Time: Sep 21, 2020 at 5:52:19 am
Latest Report: Sep 21, 2020 at 4:53 am
Visibility: 7 mi
Pressure30.03 "Hg
Humidity: 93%
Dew Point: 67 °F
Location of MetairieLocation

Past Weather in Metairie — Graph

°F

Metairie Temperature Yesterday

Maximum temperature yesterday: 73 °F (at 12:00 am)
Minimum temperature yesterday: 71 °F (at 6:53 am)
Average temperature yesterday: 72 °F

High & Low Weather Summary for the Past Weeks

 TemperatureHumidityPressure
High92 °F (Sep 7, 3:53 pm)94% (Sep 7, 4:53 am)30.11 "Hg (Sep 7, 4:53 am)
Low69 °F (Sep 21, 1:53 am)33% (Sep 6, 2:53 pm)29.73 "Hg (Sep 16, 4:53 am)
Average81 °F74%29.93 "Hg
* Reported Sep 6 3:53 am — Sep 21 3:53 am, Metairie. Weather by CustomWeather, © 2020

Note: Actual official high and low records may vary slightly from our data, if they occured in-between our weather recording intervals... More about our weather records

Metairie Weather History for the Previous 24 Hours

Scroll right to see more
 ConditionsComfort  
Time TempWeatherWind HumidityBarometerVisibility
3:53 am
Mon, Sep 21
69 °FLight rain. Low clouds.13 mph90%30.03 "Hg7 mi
2:53 am69 °FLow clouds.14 mph90%30.02 "Hg7 mi
1:53 am69 °FLight rain. Low clouds.15 mph93%30.03 "Hg7 mi
12:53 am70 °FLow clouds.13 mph93%30.02 "Hg7 mi
11:53 pm
Sun, Sep 20
71 °FLow clouds.15 mph87%30.04 "Hg9 mi
10:53 pm71 °FLow clouds.17 mph84%30.04 "Hg10 mi
10:37 pm71 °FLow clouds.22 mph84%30.03 "Hg10 mi
6:53 pm72 °FOvercast.23 mph81%30.00 "Hg10 mi
5:53 pm72 °FOvercast.21 mph81%29.99 "Hg10 mi
4:53 pm71 °FOvercast.18 mph84%29.99 "Hg10 mi
3:53 pm71 °FOvercast.20 mph84%29.98 "Hg10 mi
2:53 pm72 °FOvercast.17 mph84%29.98 "Hg10 mi
1:53 pm72 °FLight rain. Overcast.15 mph84%30.00 "Hg10 mi
12:53 pm72 °FOvercast.20 mph84%30.01 "Hg10 mi
11:53 am72 °FLight rain. Overcast.21 mph87%30.01 "Hg7 mi
11:02 am71 °FLight rain. Fog.16 mph87%30.01 "Hg3 mi
10:53 am71 °FLight rain. Fog.17 mph87%30.01 "Hg2 mi
9:53 am72 °FOvercast.18 mph84%29.99 "Hg8 mi
8:53 am71 °FFog.15 mph87%29.98 "Hg6 mi
7:53 am71 °FLight rain. Fog.17 mph87%29.96 "Hg6 mi
7:18 am71 °FOvercast.20 mph87%29.94 "Hg7 mi
6:53 am71 °FLow clouds.18 mph87%29.95 "Hg8 mi
5:53 am72 °FOvercast.21 mph87%29.93 "Hg10 mi
Weather by CustomWeather, © 2020

See weather overview